Time,TemperatureF,DewpointF,PressureIn,WindDirection,WindDirectionDegrees,WindSpeedMPH,WindSpeedGustMPH,Humidity,HourlyPrecipIn,Conditions,Clouds,dailyrainin,SoftwareType,DateUTC
2013-01-15 00:03:00,63.0,63.0,30.16,North,0,0.0,0.0,100,99.99,,,-99.99,,2013-01-15 05:03:00,
2013-01-15 00:12:00,63.0,63.0,30.16,North,0,0.0,0.0,100,99.99,,,-99.99,,2013-01-15 05:12:00,
2013-01-15 00:22:00,63.0,63.0,30.16,North,0,0.0,0.0,100,99.99,,,-99.99,,2013-01-15 05:22:00,
2013-01-15 00:33:00,63.0,63.0,30.16,North,0,0.0,0.0,100,99.99,,,-99.99,,2013-01-15 05:33:00,
2013-01-15 00:42:00,63.0,63.0,30.16,North,0,0.0,0.0,100,99.99,,,-99.99,,2013-01-15 05:42:00,
2013-01-15 00:53:00,63.0,63.0,30.16,North,0,0.0,0.0,100,99.99,,,-99.99,,2013-01-15 05:53:00,
2013-01-15 01:02:00,63.0,63.0,30.16,North,0,0.0,0.0,100,99.99,,,-99.99,,2013-01-15 06:02:00,
2013-01-15 01:12:00,63.0,63.0,30.16,North,0,0.0,0.0,100,99.99,,,-99.99,,2013-01-15 06:12:00,
2013-01-15 01:22:00,62.0,62.0,30.16,North,0,0.0,0.0,100,99.99,,,-99.99,,2013-01-15 06:22:00,
2013-01-15 01:33:00,62.0,62.0,30.15,North,0,0.0,0.0,100,99.99,,,-99.99,,2013-01-15 06:33:00,
2013-01-15 01:43:00,62.0,62.0,30.15,North,0,0.0,0.0,100,99.99,,,-99.99,,2013-01-15 06:43:00,
2013-01-15 01:52:00,61.0,61.0,30.15,North,0,0.0,0.0,100,99.99,,,-99.99,,2013-01-15 06:52:00,
2013-01-15 02:02:00,62.0,62.0,30.15,SSE,163,0.0,1.0,100,99.99,,,-99.99,,2013-01-15 07:02:00,
2013-01-15 02:12:00,62.0,62.0,30.15,SSE,163,0.0,1.0,100,99.99,,,-99.99,,2013-01-15 07:12:00,
2013-01-15 02:22:00,62.0,62.0,30.15,North,0,0.0,0.0,100,99.99,,,-99.99,,2013-01-15 07:22:00,
2013-01-15 02:33:00,62.0,62.0,30.14,North,0,0.0,0.0,100,99.99,,,-99.99,,2013-01-15 07:33:00,
2013-01-15 02:42:00,62.0,62.0,30.14,North,0,0.0,0.0,100,99.99,,,-99.99,,2013-01-15 07:42:00,
2013-01-15 02:52:00,62.0,62.0,30.14,North,0,0.0,0.0,100,99.99,,,-99.99,,2013-01-15 07:52:00,
2013-01-15 03:02:00,61.0,61.0,30.14,North,0,0.0,0.0,100,99.99,,,-99.99,,2013-01-15 08:02:00,
2013-01-15 03:12:00,61.0,61.0,30.14,North,0,0.0,0.0,100,99.99,,,-99.99,,2013-01-15 08:12:00,
2013-01-15 03:22:00,61.0,61.0,30.14,North,0,0.0,0.0,100,99.99,,,-99.99,,2013-01-15 08:22:00,
2013-01-15 03:33:00,61.0,61.0,30.14,North,0,0.0,0.0,100,99.99,,,-99.99,,2013-01-15 08:33:00,
2013-01-15 03:42:00,61.0,61.0,30.14,North,0,0.0,0.0,100,99.99,,,-99.99,,2013-01-15 08:42:00,
2013-01-15 03:53:00,60.0,60.0,30.13,North,0,0.0,0.0,100,99.99,,,-99.99,,2013-01-15 08:53:00,
2013-01-15 04:02:00,60.0,60.0,30.13,North,0,0.0,0.0,100,99.99,,,-99.99,,2013-01-15 09:02:00,
2013-01-15 04:12:00,60.0,60.0,30.13,North,0,0.0,0.0,100,99.99,,,-99.99,,2013-01-15 09:12:00,
2013-01-15 04:22:00,60.0,60.0,30.12,North,0,0.0,0.0,100,99.99,,,-99.99,,2013-01-15 09:22:00,
2013-01-15 04:33:00,60.0,60.0,30.13,North,0,0.0,0.0,100,99.99,,,-99.99,,2013-01-15 09:33:00,
2013-01-15 04:42:00,60.0,60.0,30.13,North,0,0.0,0.0,100,99.99,,,-99.99,,2013-01-15 09:42:00,
2013-01-15 04:52:00,60.0,60.0,30.13,North,0,0.0,0.0,100,99.99,,,-99.99,,2013-01-15 09:52:00,
2013-01-15 05:02:00,61.0,61.0,30.12,North,0,0.0,0.0,100,99.99,,,-99.99,,2013-01-15 10:02:00,
2013-01-15 05:12:00,61.0,61.0,30.12,North,0,0.0,0.0,100,99.99,,,-99.99,,2013-01-15 10:12:00,
2013-01-15 05:22:00,61.0,61.0,30.12,SE,143,2.0,4.0,100,99.99,,,-99.99,,2013-01-15 10:22:00,
2013-01-15 05:32:00,60.0,60.0,30.12,North,0,0.0,0.0,100,99.99,,,-99.99,,2013-01-15 10:32:00,
2013-01-15 05:42:00,60.0,60.0,30.12,North,0,0.0,0.0,100,99.99,,,-99.99,,2013-01-15 10:42:00,
2013-01-15 05:52:00,60.0,60.0,30.12,North,0,0.0,0.0,100,99.99,,,-99.99,,2013-01-15 10:52:00,
2013-01-15 06:02:00,60.0,60.0,30.12,North,0,0.0,0.0,100,99.99,,,-99.99,,2013-01-15 11:02:00,
2013-01-15 06:12:00,60.0,60.0,30.12,North,0,0.0,0.0,100,99.99,,,-99.99,,2013-01-15 11:12:00,
2013-01-15 06:22:00,60.0,60.0,30.12,North,0,0.0,0.0,100,99.99,,,-99.99,,2013-01-15 11:22:00,
2013-01-15 06:33:00,60.0,60.0,30.12,North,0,0.0,0.0,100,99.99,,,-99.99,,2013-01-15 11:33:00,
2013-01-15 06:42:00,60.0,60.0,30.12,North,0,0.0,0.0,100,99.99,,,-99.99,,2013-01-15 11:42:00,
2013-01-15 06:53:00,61.0,61.0,30.13,ESE,114,0.0,1.0,100,99.99,,,-99.99,,2013-01-15 11:53:00,
2013-01-15 07:03:00,61.0,61.0,30.13,North,0,0.0,0.0,100,99.99,,,-99.99,,2013-01-15 12:03:00,
2013-01-15 07:12:00,61.0,61.0,30.13,North,0,0.0,0.0,100,99.99,,,-99.99,,2013-01-15 12:12:00,
2013-01-15 07:22:00,61.0,61.0,30.14,North,0,0.0,0.0,100,99.99,,,-99.99,,2013-01-15 12:22:00,
2013-01-15 07:33:00,62.0,62.0,30.14,North,0,0.0,0.0,100,99.99,,,-99.99,,2013-01-15 12:33:00,
2013-01-15 07:43:00,62.0,62.0,30.14,North,0,0.0,0.0,100,99.99,,,-99.99,,2013-01-15 12:43:00,
2013-01-15 07:53:00,64.0,64.0,30.14,North,0,0.0,0.0,100,99.99,,,-99.99,,2013-01-15 12:53:00,
2013-01-15 08:03:00,64.0,64.0,30.14,ENE,68,2.0,3.0,100,99.99,,,-99.99,,2013-01-15 13:03:00,
2013-01-15 08:12:00,64.0,64.0,30.14,ENE,68,2.0,3.0,100,99.99,,,-99.99,,2013-01-15 13:12:00,
2013-01-15 08:23:00,65.0,65.0,30.15,ENE,62,0.0,3.0,100,99.99,,,-99.99,,2013-01-15 13:23:00,
2013-01-15 08:33:00,65.0,65.0,30.15,North,0,0.0,0.0,100,99.99,,,-99.99,,2013-01-15 13:33:00,
2013-01-15 08:43:00,65.0,65.0,30.15,North,0,0.0,0.0,100,99.99,,,-99.99,,2013-01-15 13:43:00,
2013-01-15 08:53:00,66.0,66.0,30.15,North,0,0.0,0.0,100,99.99,,,-99.99,,2013-01-15 13:53:00,
2013-01-15 09:03:00,66.0,66.0,30.15,East,100,0.0,2.0,100,99.99,,,-99.99,,2013-01-15 14:03:00,
2013-01-15 09:12:00,66.0,66.0,30.15,East,100,0.0,2.0,100,99.99,,,-99.99,,2013-01-15 14:12:00,
2013-01-15 09:23:00,67.0,67.0,30.15,ESE,105,1.0,3.0,100,99.99,,,-99.99,,2013-01-15 14:23:00,
2013-01-15 09:33:00,68.0,68.0,30.15,SE,131,1.0,5.0,100,99.99,,,-99.99,,2013-01-15 14:33:00,
2013-01-15 09:43:00,68.0,68.0,30.15,SE,131,1.0,5.0,100,99.99,,,-99.99,,2013-01-15 14:43:00,
2013-01-15 09:54:00,68.0,68.0,30.15,SE,146,3.0,5.0,100,99.99,,,-99.99,,2013-01-15 14:54:00,
2013-01-15 10:03:00,68.0,68.0,30.15,SE,146,3.0,5.0,100,99.99,,,-99.99,,2013-01-15 15:03:00,
2013-01-15 10:12:00,68.0,68.0,30.15,SE,146,3.0,5.0,100,99.99,,,-99.99,,2013-01-15 15:12:00,
2013-01-15 10:23:00,71.0,71.0,30.16,SE,146,4.0,5.0,100,99.99,,,-99.99,,2013-01-15 15:23:00,
2013-01-15 10:33:00,72.0,72.0,30.16,South,169,8.0,12.0,99,99.99,,,-99.99,,2013-01-15 15:33:00,
2013-01-15 10:43:00,72.0,72.0,30.16,South,169,8.0,12.0,99,99.99,,,-99.99,,2013-01-15 15:43:00,
2013-01-15 10:53:00,74.0,71.0,30.15,SSE,153,7.0,11.0,90,99.99,,,-99.99,,2013-01-15 15:53:00,
2013-01-15 11:03:00,74.0,69.0,30.15,SE,145,7.0,11.0,85,99.99,,,-99.99,,2013-01-15 16:03:00,
2013-01-15 11:12:00,74.0,69.0,30.15,SE,145,7.0,11.0,85,99.99,,,-99.99,,2013-01-15 16:12:00,
2013-01-15 11:23:00,75.0,68.0,30.14,South,174,7.0,12.0,78,99.99,,,-99.99,,2013-01-15 16:23:00,
2013-01-15 11:33:00,76.0,67.0,30.14,South,174,6.0,11.0,73,99.99,,,-99.99,,2013-01-15 16:33:00,
2013-01-15 11:43:00,76.0,67.0,30.14,South,174,6.0,11.0,73,99.99,,,-99.99,,2013-01-15 16:43:00,
2013-01-15 11:53:00,78.0,67.0,30.13,SE,143,5.0,9.0,69,99.99,,,-99.99,,2013-01-15 16:53:00,
2013-01-15 12:03:00,78.0,66.0,30.12,South,169,6.0,10.0,67,99.99,,,-99.99,,2013-01-15 17:03:00,
2013-01-15 12:12:00,78.0,66.0,30.12,South,169,6.0,10.0,67,99.99,,,-99.99,,2013-01-15 17:12:00,
2013-01-15 12:23:00,78.0,65.0,30.12,SSE,163,5.0,10.0,65,99.99,,,-99.99,,2013-01-15 17:23:00,
2013-01-15 12:33:00,79.0,65.0,30.11,SSE,148,2.0,5.0,63,99.99,,,-99.99,,2013-01-15 17:33:00,
2013-01-15 12:42:00,79.0,65.0,30.11,SSE,148,2.0,5.0,63,99.99,,,-99.99,,2013-01-15 17:42:00,
2013-01-15 12:53:00,79.0,64.0,30.10,South,183,6.0,9.0,61,99.99,,,-99.99,,2013-01-15 17:53:00,
2013-01-15 13:03:00,78.0,64.0,30.10,South,180,5.0,9.0,62,99.99,,,-99.99,,2013-01-15 18:03:00,
2013-01-15 13:13:00,78.0,64.0,30.10,South,180,5.0,9.0,62,99.99,,,-99.99,,2013-01-15 18:13:00,
2013-01-15 13:23:00,79.0,64.0,30.09,SE,142,7.0,9.0,61,99.99,,,-99.99,,2013-01-15 18:23:00,
2013-01-15 13:33:00,79.0,65.0,30.09,SSE,149,4.0,7.0,62,99.99,,,-99.99,,2013-01-15 18:33:00,
2013-01-15 13:43:00,79.0,65.0,30.09,SSE,149,4.0,7.0,62,99.99,,,-99.99,,2013-01-15 18:43:00,
2013-01-15 13:53:00,80.0,65.0,30.08,ENE,73,3.0,5.0,60,99.99,,,-99.99,,2013-01-15 18:53:00,
2013-01-15 14:03:00,80.0,65.0,30.08,SSE,150,3.0,7.0,60,99.99,,,-99.99,,2013-01-15 19:03:00,
2013-01-15 14:12:00,80.0,65.0,30.08,SSE,150,3.0,7.0,60,99.99,,,-99.99,,2013-01-15 19:12:00,
2013-01-15 14:23:00,80.0,65.0,30.07,WSW,242,3.0,6.0,61,99.99,,,-99.99,,2013-01-15 19:23:00,
2013-01-15 14:33:00,81.0,64.0,30.07,SSE,166,3.0,5.0,56,99.99,,,-99.99,,2013-01-15 19:33:00,
2013-01-15 14:42:00,81.0,64.0,30.07,SSE,166,3.0,5.0,56,99.99,,,-99.99,,2013-01-15 19:42:00,
2013-01-15 14:53:00,80.0,64.0,30.07,SSW,200,3.0,5.0,58,99.99,,,-99.99,,2013-01-15 19:53:00,
2013-01-15 15:03:00,79.0,64.0,30.07,SW,236,2.0,5.0,61,99.99,,,-99.99,,2013-01-15 20:03:00,
2013-01-15 15:12:00,79.0,64.0,30.07,SW,236,2.0,5.0,61,99.99,,,-99.99,,2013-01-15 20:12:00,
2013-01-15 15:23:00,80.0,64.0,30.06,SW,232,2.0,5.0,59,99.99,,,-99.99,,2013-01-15 20:23:00,
2013-01-15 15:33:00,81.0,63.0,30.06,South,176,6.0,10.0,54,99.99,,,-99.99,,2013-01-15 20:33:00,
2013-01-15 15:43:00,81.0,63.0,30.06,South,176,6.0,10.0,54,99.99,,,-99.99,,2013-01-15 20:43:00,
2013-01-15 15:53:00,82.0,63.0,30.06,SSE,150,7.0,11.0,53,99.99,,,-99.99,,2013-01-15 20:53:00,
2013-01-15 16:03:00,81.0,64.0,30.06,South,176,7.0,11.0,56,99.99,,,-99.99,,2013-01-15 21:03:00,
2013-01-15 16:13:00,81.0,64.0,30.06,South,176,7.0,11.0,56,99.99,,,-99.99,,2013-01-15 21:13:00,
2013-01-15 16:23:00,81.0,64.0,30.06,SSE,152,6.0,10.0,57,99.99,,,-99.99,,2013-01-15 21:23:00,
2013-01-15 16:33:00,81.0,64.0,30.06,South,169,5.0,6.0,57,99.99,,,-99.99,,2013-01-15 21:33:00,
2013-01-15 16:43:00,81.0,64.0,30.06,South,169,5.0,6.0,57,99.99,,,-99.99,,2013-01-15 21:43:00,
2013-01-15 16:53:00,80.0,65.0,30.07,South,181,4.0,5.0,60,99.99,,,-99.99,,2013-01-15 21:53:00,
2013-01-15 17:03:00,80.0,65.0,30.07,SSE,153,5.0,6.0,60,99.99,,,-99.99,,2013-01-15 22:03:00,
2013-01-15 17:12:00,80.0,65.0,30.07,SSE,153,5.0,6.0,60,99.99,,,-99.99,,2013-01-15 22:12:00,
2013-01-15 17:23:00,82.0,65.0,30.07,SE,145,6.0,9.0,56,99.99,,,-99.99,,2013-01-15 22:23:00,
2013-01-15 17:33:00,81.0,65.0,30.07,SE,142,7.0,9.0,58,99.99,,,-99.99,,2013-01-15 22:33:00,
2013-01-15 17:43:00,81.0,65.0,30.07,SE,142,7.0,9.0,58,99.99,,,-99.99,,2013-01-15 22:43:00,
2013-01-15 17:53:00,79.0,65.0,30.07,SSE,155,4.0,5.0,62,99.99,,,-99.99,,2013-01-15 22:53:00,
2013-01-15 18:02:00,78.0,65.0,30.07,SSE,148,4.0,5.0,64,99.99,,,-99.99,,2013-01-15 23:02:00,
2013-01-15 18:13:00,78.0,65.0,30.07,SSE,148,4.0,5.0,64,99.99,,,-99.99,,2013-01-15 23:13:00,
2013-01-15 18:23:00,77.0,65.0,30.07,SE,142,2.0,3.0,67,99.99,,,-99.99,,2013-01-15 23:23:00,
2013-01-15 18:33:00,76.0,65.0,30.08,SE,139,2.0,5.0,69,99.99,,,-99.99,,2013-01-15 23:33:00,
2013-01-15 18:43:00,76.0,65.0,30.08,SE,139,2.0,5.0,69,99.99,,,-99.99,,2013-01-15 23:43:00,
2013-01-15 18:53:00,74.0,64.0,30.07,SSE,149,4.0,6.0,71,99.99,,,-99.99,,2013-01-15 23:53:00,
2013-01-15 19:03:00,73.0,66.0,30.08,SE,146,3.0,4.0,78,99.99,,,-99.99,,2013-01-16 00:03:00,
2013-01-15 19:13:00,73.0,66.0,30.08,SE,146,3.0,4.0,78,99.99,,,-99.99,,2013-01-16 00:13:00,
2013-01-15 19:22:00,72.0,65.0,30.08,SSE,155,4.0,5.0,80,99.99,,,-99.99,,2013-01-16 00:22:00,
2013-01-15 19:33:00,71.0,66.0,30.08,SE,146,4.0,6.0,83,99.99,,,-99.99,,2013-01-16 00:33:00,
2013-01-15 19:43:00,71.0,66.0,30.08,SE,146,4.0,6.0,83,99.99,,,-99.99,,2013-01-16 00:43:00,
2013-01-15 19:53:00,70.0,66.0,30.08,SSE,158,4.0,5.0,86,99.99,,,-99.99,,2013-01-16 00:53:00,
2013-01-15 20:03:00,70.0,65.0,30.08,SSE,160,5.0,6.0,85,99.99,,,-99.99,,2013-01-16 01:03:00,
2013-01-15 20:12:00,70.0,65.0,30.08,SSE,160,5.0,6.0,85,99.99,,,-99.99,,2013-01-16 01:12:00,
2013-01-15 20:22:00,70.0,66.0,30.08,SSE,162,5.0,6.0,87,99.99,,,-99.99,,2013-01-16 01:22:00,
2013-01-15 20:33:00,70.0,67.0,30.08,SSE,150,6.0,8.0,89,99.99,,,-99.99,,2013-01-16 01:33:00,
2013-01-15 20:42:00,70.0,67.0,30.08,SSE,150,6.0,8.0,89,99.99,,,-99.99,,2013-01-16 01:42:00,
2013-01-15 20:53:00,69.0,67.0,30.08,SSE,150,6.0,8.0,92,99.99,,,-99.99,,2013-01-16 01:53:00,
2013-01-15 21:03:00,69.0,67.0,30.08,SSE,149,5.0,7.0,94,99.99,,,-99.99,,2013-01-16 02:03:00,
2013-01-15 21:12:00,69.0,67.0,30.08,SSE,149,5.0,7.0,94,99.99,,,-99.99,,2013-01-16 02:12:00,
2013-01-15 21:22:00,67.0,66.0,30.07,SW,221,1.0,3.0,96,99.99,,,-99.99,,2013-01-16 02:22:00,
2013-01-15 21:32:00,67.0,67.0,30.07,South,188,3.0,4.0,99,99.99,,,-99.99,,2013-01-16 02:32:00,
2013-01-15 21:42:00,67.0,67.0,30.07,South,188,3.0,4.0,99,99.99,,,-99.99,,2013-01-16 02:42:00,
2013-01-15 21:53:00,67.0,67.0,30.07,North,0,0.0,0.0,100,99.99,,,-99.99,,2013-01-16 02:53:00,
2013-01-15 22:03:00,66.0,66.0,30.08,West,271,2.0,3.0,100,99.99,,,-99.99,,2013-01-16 03:03:00,
2013-01-15 22:12:00,66.0,66.0,30.08,North,0,0.0,0.0,100,99.99,,,-99.99,,2013-01-16 03:12:00,
2013-01-15 22:22:00,66.0,66.0,30.08,North,0,0.0,0.0,100,99.99,,,-99.99,,2013-01-16 03:22:00,
2013-01-15 22:33:00,66.0,66.0,30.08,North,0,0.0,0.0,100,99.99,,,-99.99,,2013-01-16 03:33:00,
2013-01-15 22:43:00,66.0,66.0,30.08,North,0,0.0,0.0,100,99.99,,,-99.99,,2013-01-16 03:43:00,
2013-01-15 22:53:00,66.0,66.0,30.08,North,0,0.0,0.0,100,99.99,,,-99.99,,2013-01-16 03:53:00,
2013-01-15 23:02:00,67.0,67.0,30.08,ENE,77,0.0,1.0,100,99.99,,,-99.99,,2013-01-16 04:02:00,
2013-01-15 23:12:00,67.0,67.0,30.08,ENE,77,0.0,1.0,100,99.99,,,-99.99,,2013-01-16 04:12:00,
2013-01-15 23:22:00,67.0,67.0,30.09,North,0,0.0,0.0,100,99.99,,,-99.99,,2013-01-16 04:22:00,
2013-01-15 23:33:00,67.0,67.0,30.09,North,0,0.0,0.0,100,99.99,,,-99.99,,2013-01-16 04:33:00,
2013-01-15 23:42:00,67.0,67.0,30.09,North,0,0.0,0.0,100,99.99,,,-99.99,,2013-01-16 04:42:00,
2013-01-15 23:52:00,67.0,67.0,30.09,North,0,0.0,0.0,100,99.99,,,-99.99,,2013-01-16 04:52:00,